Location: ????????
(38.4362°N, 22.8767°E)
Time: 13:28:10
(UTC+00:00)

FENGYUN 1C DEB - Pass Details

Date: 16 October 2025
Orbit: 841 x 1273 km, 99.2° (Epoch: 16 November)

Event Time Altitude Azimuth Distance (km) Brightness Sun altitude
Rises 02:26:58 0° 23° (NNE) 3,403 ? -26.4°
Reaches altitude 10° 02:29:30 10° 32° (NNE) 2,470 ? -26.0°
Maximum altitude 02:34:28 36° 99° (E) 1,333 ? -25.0°
Drops below altitude 10° 02:39:38 10° 165° (SSE) 2,574 ? -24.0°
Sets 02:42:18 0° 174° (S) 3,565 ? -23.5°
